www.weatherandclimate.eu
WEATHER в Светлогорске
Time
(UTC), date
18 13.01
21 13.01
00 14.01
03 14.01
06 14.01
09 14.01
12 14.01
15 14.01
18 14.01
21 14.01
00 15.01
03 15.01
06 15.01
09 15.01
12 15.01
15 15.01
18 15.01
21 15.01
00 16.01
03 16.01
06 16.01
09 16.01
12 16.01
15 16.01
18 16.01
21 16.01
00 17.01
03 17.01
06 17.01
09 17.01
12 17.01
15 17.01
18 17.01
21 17.01
00 18.01
03 18.01
06 18.01
09 18.01
12 18.01
15 18.01
18 18.01
21 18.01
00 19.01
03 19.01
06 19.01
09 19.01
12 19.01
15 19.01
18 19.01
21 19.01
00 20.01
03 20.01
06 20.01
09 20.01
12 20.01
Wind
(dir.,m/s)
Visibility Phenomena Clouds Т
(С)
Тd
(С)
f
(%)
Тe
(С)
Тes
(С)
Comfort P
(hPa)
Po
hPa)
Тmin
(С)
Tmax
(С)
R
(mm)
R24
(mm)
S
(sm)
NW 3 н/о н/о -20.7 -23.3 80 -28 -28 very cold 1003.7 990.1
NW 4 н/о н/о -22.1 -24.9 78 -32 -32 risk of frostbite 1005.2 991.5
NW 4 н/о н/о -29.8 -33.5 70 -41 -41 risk of frostbite 1007.6 993.4 -29.8 90
SE 1 н/о н/о -33.8 -37.9 66 -38 -38 risk of frostbite 1010.1 995.7 -34.0
S 2 н/о н/о -36.1 -40.6 63 -45 -45 risk of frostbite 1012.9 998.3
S 1 н/о н/о -38.3 -43.0 61 -43 -43 risk of frostbite 1016.2 1001.4
S 1 н/о н/о -39.2 -44.0 60 -44 -44 risk of frostbite 1019.2 1004.3 -29.8
S 2 н/о н/о -40.3 -45.2 59 -49 -49 risk of frostbite 1021.6 1006.6
SW 3 н/о н/о -40.6 -45.6 58 -52 -52 risk of frostbite 1024.2 1009.1
SW 2 н/о н/о -41.1 -46.1 58 -50 -50 risk of frostbite 1026.8 1011.7
NE 2 н/о н/о -44.3 -49.7 55 -54 -54 risk of frostbite 1029.1 1013.7 -44.3 89
0 н/о н/о -45.6 -51.2 53 -46 -46 risk of frostbite 1030.9 1015.4 -46.3
NE 1 н/о н/о -48.2 -54.1 50 -54 -54 risk of frostbite 1033.1 1017.4
NE 1 н/о н/о -49.4 -55.5 49 -56 -56 risk of frostbite 1035.2 1019.4
NE 2 н/о н/о -46.0 -51.6 53 -56 -56 risk of frostbite 1035.8 1020.3 -44.3
E 1 н/о н/о -46.3 -52.0 52 -52 -52 risk of frostbite 1036.1 1020.5
0 н/о н/о -46.1 -51.8 52 -46 -46 risk of frostbite 1036.3 1020.7
E 2 н/о н/о -44.4 -49.9 54 -54 -54 risk of frostbite 1035.7 1020.3
NE 3 н/о н/о -42.4 -47.7 56 -55 -55 risk of frostbite 1034.7 1019.4 -47.0 88
NE 4
{10}
н/о н/о -40.4 -45.5 58 -54 -54 risk of frostbite 1032.7 1017.5
NE 4 н/о н/о -37.6 -42.3 61 -51 -51 risk of frostbite 1032.2 1017.2
NE 3 н/о н/о -35.0 -39.5 63 -46 -46 risk of frostbite 1031.3 1016.4
NE 3 н/о н/о -33.7 -38.1 64 -44 -44 risk of frostbite 1029.7 1015.0 -33.7
NE 4 н/о н/о -33.6 -38.0 64 -46 -46 risk of frostbite 1028.4 1013.7
NE 4 н/о н/о -33.4 -37.9 64 -45 -45 risk of frostbite 1027.3 1012.7
NE 4
{11}
н/о н/о -33.1 -37.8 63 -45 -45 risk of frostbite 1026.1 1011.5
NE 4
{10}
н/о н/о -32.7 -37.5 62 -45 -45 risk of frostbite 1023.8 1009.3 -33.7 95
NE 4 н/о н/о -32.8 -37.4 63 -45 -45 risk of frostbite 1021.5 1006.9
NE 4
{10}
н/о н/о -31.6 -36.3 63 -43 -43 risk of frostbite 1018.7 1004.2
E 4
{12}
н/о н/о -30.0 -34.4 65 -41 -41 risk of frostbite 1014.4 1000.1
E 6-11
{12}
н/о н/о -27.9 -32.1 67 -41 -41 risk of frostbite 1009.8 995.7 -27.9 0.3
E 3
{14}
н/о н/о -25.5 -29.5 69 -34 -34 risk of frostbite 1005.7 991.8
E 2
{12}
н/о н/о -23.0 -26.8 71 -29 -29 very cold 1003.2 989.5
E 5-13
{13}
н/о н/о -23.8 -27.9 69 -35 -35 risk of frostbite 1002.4 988.7
E 3
{13}
н/о н/о -24.2 -28.4 68 -33 -33 risk of frostbite 1001.8 988.1 -27.9 0.6 91
E 3
{10}
н/о н/о -24.1 -28.6 66 -33 -33 risk of frostbite 1001.7 987.9
NE 2
{10}
н/о н/о -24.2 -28.6 67 -31 -31 risk of frostbite 1002.0 988.2
NE 2 н/о н/о -24.9 -29.3 67 -32 -32 risk of frostbite 1001.8 988.0
E 4 н/о н/о -24.6 -29.3 65 -35 -35 risk of frostbite 1001.8 988.0 -24.0 1
E 4 н/о н/о -25.1 -30.0 64 -35 -35 risk of frostbite 1001.7 987.9
E 3 н/о н/о -24.9 -29.8 64 -33 -33 risk of frostbite 1002.1 988.3
E 2 н/о н/о -24.5 -28.9 67 -31 -31 risk of frostbite 1003.3 989.5
E 2 н/о н/о -24.1 -28.5 67 -31 -31 risk of frostbite 1004.7 990.9 -25.4 0.0 89
E 2 н/о н/о -24.7 -29.8 62 -31 -31 risk of frostbite 1006.1 992.3
E 3 н/о н/о -24.6 -30.1 60 -33 -33 risk of frostbite 1008.2 994.3
E 1 н/о н/о -25.5 -30.6 62 -29 -29 very cold 1010.5 996.5
E 2 н/о н/о -27.0 -31.2 67 -34 -34 risk of frostbite 1012.4 998.3 -24.1 0.9
E 2 н/о н/о -28.4 -32.9 65 -36 -36 risk of frostbite 1014.3 1000.1
E 3 н/о н/о -30.7 -35.1 65 -40 -40 risk of frostbite 1016.3 1001.9
NE 2 н/о н/о -34.2 -38.7 64 -42 -42 risk of frostbite 1017.9 1003.4
E 3 н/о н/о -34.2 -38.8 63 -45 -45 risk of frostbite 1019.1 1004.5 -34.3 0.7 89
NE 2 н/о н/о -35.2 -40.1 61 -44 -44 risk of frostbite 1020.7 1006.1 -35.8
E 2 н/о н/о -36.2 -41.1 60 -45 -45 risk of frostbite 1022.3 1007.5
0 н/о н/о -38.4 -43.4 59 -38 -38 risk of frostbite 1024.1 1009.2
NE 2 н/о н/о -39.2 -44.0 60 -48 -48 risk of frostbite 1025.9 1010.9 -33.8
Weather station location Светлогорск (Krasnoyarsk territory, Russia): latitude 66.95 longitude 88.42 Height above sea level 101 m.
The archive shows weather in в Светлогорске for the last week. For the whole month and for the previous months, starting from January 2011, you can obtain archived data by selecting the date range of interest from the drop-down list and clicking the "Find!".
*Decide who are you:
Attention! The time in the tables is UTC. To get the local time, you must add an amendment that is equal to 7 h.
See also the weather archive in nearby cities and at nearby weather stations:
Partners of our site:
Column explanations:
  • Wind - indicated wind speed in m/s - average for 10 minutes, gusts in time and between periods (in brackets) and the direction from which the wind blows: N - North, NE - North-East, E - East, SE - South-East , S - South, SW - South-West, W - West, NW - North-West.
  • Visibility - horizontal visibility range in meters or kilometers. When visibility is from 1 to 10 km in the absence of precipitation, haze is usually observed, and when visibility is reduced to 1 km or less, fog is observed. In dry weather, visibility may be reduced by smoke, dust, or haze.
  • Phenomena - atmospheric phenomena observed during the period or in the last hour before the period are indicated; curly brackets indicate phenomena observed between periods (1-3 hours before the period); square brackets indicate hail or ice deposits with their diameter in mm.
  • Clouds - are through slash total and lower clouds in points, and the height of the lower border of the cloud in meters; square brackets contain cloud forms: Ci - Cirrus, Cs - Cirrostratus, Cc - Cirrocumulus, Ac - Altocumulus, As - Altostratus, Sc - Stratocumulus, Ns - Nimbostratus, Cu - Cumulus, Cb - Cumulonimbus. For more information about cloud classification, see the cloud Atlas (PDF).
  • T - Air temperature - temperature measured at a height of 2 m above the ground.
  • Td - Dew point temperature - the temperature is lowered to that contained in the air, the water vapor reaches saturation.
  • f - Relative humidity measured at a height of 2 m above the ground.
  • Te - Effective temperature is the temperature that a seasonally dressed person feels in the shade. Characteristic of stuffy weather. The calculation takes into account the influence of air humidity and wind speed on a person’s heat.
  • Tes - Effective sun temperature - the temperature that a person feels, adjusted for solar heating. Characteristics of the sultry weather. Depends on the height of the sun above the horizon, cloud cover and wind speed. At night, in cloudy weather, as well as in winds of 12 m/s or more, the correction is zero.
  • P - Atmospheric pressure - atmospheric pressure reduced to sea level.
  • Po - Atmospheric pressure - atmospheric pressure measured at the station level.
  • Tmin - Minimum temperature - minimum air temperature at a height of 2 m above the ground.
  • Tmax - Maximum temperature - maximum air temperature at a height of 2 m above the ground.
  • R - Precipitation - The amount of precipitation over a period of time, mm. When you hover over the number, the time period for which the specified amount of precipitation has fallen.
  • R24 - Количество осадков - The amount of precipitation in 24 hours, mm.
  • S - Snow cover - The height of the snow cover. When you hover the mouse over the number - the state of the snow cover and the degree of coverage in points.